This demonstration page uses our WeatherBlox Daily Observations layout. Learn more.

Left ArrowRight Arrow

Hourly Observations for May 11, 2015

Temp ( °F °C ) Dew Point ( °F °C ) Humidity (%) Winds ( mph kmh ) Pressure ( in mb ) Visibility ( mi km ) Precip ( " mm )
12:51 am 00:51 Clear 58 14.4 28 -2.2 32 32 NW 5 7 29.88 1012 10 16 0.00 0.00
1:51 am 01:51 Clear 56 13.3 28 -2.2 34 34 Calm 29.88 1012 10 16 0.00 0.00
2:51 am 02:51 Clear 53 11.7 28 -2.2 38 38 E 7 11 29.88 1012 10 16 0.00 0.00
3:51 am 03:51 Clear 53 11.7 28 -2.2 38 38 Calm 29.89 1012 10 16 0.00 0.00
4:51 am 04:51 Clear 51 10.6 28 -2.2 41 41 ESE 3 6 29.90 1013 10 16 0.00 0.00
5:51 am 05:51 Sunny 51 10.6 27 -2.8 39 39 Calm 29.91 1013 10 16 0.00 0.00
6:51 am 06:51 Sunny 57 13.9 30 -1.1 36 36 Calm 29.92 1013 10 16 0.00 0.00
7:51 am 07:51 Sunny 65 18.3 30 -1.1 27 27 SSE 13 20 29.93 1013 10 16 0.00 0.00
8:51 am 08:51 Sunny 71 21.7 31 -0.6 23 23 SE 9 15 29.91 1013 10 16 0.00 0.00
9:51 am 09:51 Sunny 74 23.3 31 -0.6 20 20 VRB 3 6 29.89 1012 10 16 0.00 0.00
10:51 am 10:51 Sunny 79 26.1 29 -1.7 16 16 SE 6 9 29.87 1012 10 16 0.00 0.00
11:51 am 11:51 Sunny 81 27.2 26 -3.3 13 13 undefined N/A 29.85 1011 10 16 0.00 0.00
12:51 pm 12:51 Sunny 83 28.3 23 -5 11 11 SSE 10 17 29.83 1010 10 16 0.00 0.00
1:51 pm 13:51 Sunny 84 28.9 23 -5 10 10 VRB 7 11 29.81 1010 10 16 0.00 0.00
2:51 pm 14:51 Sunny 85 29.4 22 -5.6 10 10 SSW 5 7 29.78 1009 10 16 0.00 0.00
3:51 pm 15:51 Sunny 86 30 20 -6.7 9 9 S 10 17 29.75 1008 10 16 0.00 0.00
4:51 pm 16:51 Sunny 86 30 19 -7.2 8 8 S 13 20 29.75 1007 10 16 0.00 0.00
5:51 pm 17:51 Sunny 84 28.9 20 -6.7 9 9 S 7 11 29.75 1007 10 16 0.00 0.00
6:51 pm 18:51 Sunny 82 27.8 19 -7.2 9 9 SE 9 15 29.75 1007 10 16 0.00 0.00
7:51 pm 19:51 Clear 75 23.9 19 -7.2 12 12 E 8 13 29.75 1008 10 16 0.00 0.00
8:51 pm 20:51 Clear 76 24.4 19 -7.2 12 12 E 10 17 29.75 1008 10 16 0.00 0.00
9:51 pm 21:51 Clear 68 20 19 -7.2 15 15 E 8 13 29.79 1009 10 16 0.00 0.00
10:51 pm 22:51 Clear 68 20 18 -7.8 15 15 ESE 7 11 29.78 1009 10 16 0.00 0.00
11:51 pm 23:51 Clear 67 19.4 18 -7.8 15 15 SSE 3 6 29.78 1008 10 16 0.00 0.00

Powered by AerisWeather